Terug naar catalogus

CZ-4C DEB

ActiefSSO
NORAD 38659·DEBRIS·🇨🇳 China

Gelanceerd Dec 15, 2009 vanaf Taiyuan Satellite Launch Center

Loading…

Volgende Passages (komende 24 uur)

TLE

VersSource: Space-Track

Epoch: Sep 14, 2026, 03:03 UTC

1 38659U 09072G   26257.12774488  .00000272  00000-0  93123-3 0  9994
2 38659 100.7205 214.0697 0133841 270.4925 155.0014 13.05717618794438

Volg CZ-4C DEB in realtime met AllMySat

Download on the App Store